Regional Weather Roundup
Issued by NWS

Home | Current Version | Previous Version | Graphics & Text | Print | Product List | Glossary On
Versions: 1 2 3 4 5 6 7 8 9 10 11 12 13 14 15 16 17 18 19 20 21 22 23 24 25 26 27 28 29 30 31 32 33 34 35 36 37 38 39 40 41 42 43 44 45 46 47 48 49 50
000
ASUS43 KFSD 192102
RWRSD

WEATHER ROUNDUP FOR SOUTH DAKOTA
NATIONAL WEATHER SERVICE SIOUX FALLS SD
400 PM CDT THU OCT 19 2017

NOTE: "FAIR" INDICATES FEW OR NO CLOUDS BELOW 12,000 FEET WITH NO
SIGNIFICANT WEATHER AND/OR OBSTRUCTIONS TO VISIBILITY.


SDZ001>005-009-010-012>017-192200-
NORTHWEST AND NORTH CENTRAL SOUTH DAKOTA

CITY           SKY/WX    TMP DP  RH WIND       PRES   REMARKS
BUFFALO          N/A     82  24  12 S6        29.69F
FAITH            N/A     79  23  12 S7        29.75F
MOBRIDGE       SUNNY     74  42  31 SE12      29.73F
$$

SDZ012>016-024>037-041>051-057-063-072>074-192200-
SOUTHWEST AND SOUTH CENTRAL SOUTH DAKOTA

CITY           SKY/WX    TMP DP  RH WIND       PRES   REMARKS
RAPID CTY ARPT SUNNY     85  16   7 S18       29.75F
PIERRE         SUNNY     83  35  18 S13       29.74F
CUSTER         SUNNY     70  12  10 SW12G21   29.93F
ELLSWORTH AFB  SUNNY     85  20   9 SE5       29.75F
PHILIP         SUNNY     85  19   9 SW17      29.75F
PINE RIDGE     SUNNY     84  22  10 S14       29.83F
SPEARFISH      FAIR      75  32  20 E7        29.81S
WINNER         FAIR      84  42  22 S18G25    29.81F
$$

SDZ004>011-016>023-039-040-192200-
NORTHEAST SOUTH DAKOTA

CITY           SKY/WX    TMP DP  RH WIND       PRES   REMARKS
ABERDEEN       SUNNY     75  42  30 S20       29.78F
WATERTOWN      SUNNY     71  47  42 S16G25    29.83F
BROOKINGS      SUNNY     72  48  42 S17G26    29.88F
SISSETON         N/A     76  43  30 S20G31    29.79F
$$

SDZ017-020-022-023-036>040-048>070-192200-
SOUTHEAST SOUTH DAKOTA

CITY           SKY/WX    TMP DP  RH WIND       PRES   REMARKS
SIOUX FALLS    MOSUNNY   74  52  46 S16       29.91F
HURON          SUNNY     76  44  32 S16G23    29.82F
CHAMBERLAIN    SUNNY     81  46  28 S16       29.81F
MITCHELL       SUNNY     79  44  28 S15G23    29.84F
YANKTON        SUNNY     77  50  38 S16G22    29.91F
$$

ABBREVIATIONS USED IN REMARKS
   TC - TEMPERATURE IN CELSIUS
  WCI - WIND CHILL INDEX
   HX - HEAT INDEX
  VSB - VISIBILITY





USA.gov is the U.S. government's official web portal to all federal, state and local government web resources and services.